Date,TemperatureHighF,TemperatureAvgF,TemperatureLowF,DewpointHighF,DewpointAvgF,DewpointLowF,HumidityHigh,HumidityAvg,HumidityLow,PressureMaxIn,PressureMinIn,WindSpeedMaxMPH,WindSpeedAvgMPH,GustSpeedMaxMPH,PrecipitationSumIn
2013-2-1,21,5,-7,-100,-100,-100,0,0,100,0.00,40.00,0,-999,0,0.00
2013-2-2,29,16,10,-100,-100,-100,0,0,100,0.00,40.00,0,-999,0,0.00
2013-2-3,30,23,10,-100,-100,-100,0,0,100,0.00,40.00,0,-999,0,0.00
2013-2-4,25,20,14,-100,-100,-100,0,0,100,0.00,40.00,0,-999,0,0.00
2013-2-5,35,29,20,-100,-100,-100,0,0,100,0.00,40.00,0,-999,0,0.00
2013-2-6,39,30,21,-100,-100,-100,0,0,100,0.00,40.00,0,-999,0,0.00
2013-2-7,36,28,24,-100,-100,-100,0,0,100,0.00,40.00,0,-999,0,0.00
2013-2-8,29,24,21,-100,-100,-100,0,0,100,0.00,40.00,0,-999,0,0.00
2013-2-9,32,28,24,-100,-100,-100,0,0,100,0.00,40.00,0,-999,0,0.00
2013-2-10,40,33,28,-100,-100,-100,0,0,100,0.00,40.00,0,-999,0,0.00
2013-2-11,28,25,23,-100,-100,-100,0,0,100,0.00,40.00,0,-999,0,0.00
2013-2-12,42,31,21,-100,-100,-100,0,0,100,0.00,40.00,0,-999,0,0.00
2013-2-13,47,35,24,-100,-100,-100,0,0,100,0.00,40.00,0,-999,0,0.00
2013-2-14,36,30,20,-100,-100,-100,0,0,100,0.00,40.00,0,-999,0,0.00
2013-2-15,24,18,12,-100,-100,-100,0,0,100,0.00,40.00,0,-999,0,0.00
2013-2-16,32,21,10,-100,-100,-100,0,0,100,0.00,40.00,0,-999,0,0.00
2013-2-17,41,27,16,-100,-100,-100,0,0,100,0.00,40.00,0,-999,0,0.00
2013-2-18,37,27,11,-100,-100,-100,0,0,100,0.00,40.00,0,-999,0,0.00
2013-2-19,18,11,3,-100,-100,-100,0,0,100,0.00,40.00,0,-999,0,0.00
2013-2-20,21,15,-2,-100,-100,-100,0,0,100,0.00,40.00,0,-999,0,0.00
2013-2-21,22,18,14,-100,-100,-100,0,0,100,0.00,40.00,0,-999,0,0.00
2013-2-22,25,21,19,-100,-100,-100,0,0,100,0.00,40.00,0,-999,0,0.00
2013-2-23,30,20,8,-100,-100,-100,0,0,100,0.00,40.00,0,-999,0,0.00
2013-2-24,40,24,10,-100,-100,-100,0,0,100,0.00,40.00,0,-999,0,0.00
2013-2-25,38,31,25,-100,-100,-100,0,0,100,0.00,40.00,0,-999,0,0.00
2013-2-26,28,26,25,-100,-100,-100,0,0,100,0.00,40.00,0,-999,0,0.00
2013-2-27,26,24,20,-100,-100,-100,0,0,100,0.00,40.00,0,-999,0,0.00
2013-2-28,27,23,17,-100,-100,-100,0,0,100,0.00,40.00,0,-999,0,0.00